Weather History for Fayetteville, AR

Change the Weather History Date:

Friday, March 29, 2013

  Actual Average Record
Temperature  
Mean Temperature 59 °F 52 °F  
Max Temperature 66 °F 64 °F 84 °F (1967)
Min Temperature 51 °F 40 °F 23 °F (1955)
Degree Days  
Heating Degree Days 6 13  
Month to date heating degree days 629 500  
Since 1 July heating degree days 3700 3803  
Cooling Degree Days 0 0  
Month to date cooling degree days 1 0  
Year to date cooling degree days 1 0  
Growing Degree Days 8 (Base 50)    
Moisture  
Dew Point 52 °F    
Average Humidity 84    
Maximum Humidity 100    
Minimum Humidity 68    
Precipitation  
Precipitation 0.91 in 0.14 in 0.91 in (2013)
Month to date precipitation 3.61 3.65  
Year to date precipitation 9.46 9.30  
Sea Level Pressure  
Sea Level Pressure 30.15 in    
Wind  
Wind Speed 4 mph (SSE)    
Max Wind Speed 12 mph    
Max Gust Speed 16 mph    
Visibility 8 miles    
Events Rain , Thunderstorm    
T = Trace of Precipitation, MM = Missing Value Source: NWS Daily Summary

Daily Weather History Graph

Daily Weather History Graph

Search for Another Location

Airport:

Trip Planner

Search our weather history database for the weather conditions in past years. The results will help you decide how hot, cold, wet, or windy it might be!

Date:

Astronomy

Mar. 29, 2013 Rise Set
Actual Time 7:06 AM CDT 7:36 PM CDT
Civil Twilight 6:41 AM CDT 8:02 PM CDT
Nautical Twilight 6:10 AM CDT 8:32 PM CDT
Astronomical Twilight 5:40 AM CDT 9:03 PM CDT
Moon 10:30 PM CDT (3/29) 8:21 AM CDT (3/29)
Length of Visible Light 13h 20m
Length of Day
12h 29m
Waning Gibbous, 93% of the Moon is Illuminated
Mar 29
Waning Gibbous
Apr 2
Last Quarter
Apr 10
New
Apr 18
First Quarter
Apr 25
Full

Hourly Weather History & Observations

Time (CDT) Temp. Dew Point Humidity Pressure Visibility Wind Dir Wind Speed Gust Speed Precip Events Conditions
12:53 AM 55.9 °F 46.9 °F 72% 30.15 in 10.0 mi SSE 3.5 mph - N/A   Mostly Cloudy
1:53 AM 54.0 °F 46.9 °F 77% 30.13 in 10.0 mi Calm Calm - N/A   Mostly Cloudy
2:53 AM 55.9 °F 48.0 °F 75% 30.13 in 10.0 mi Calm Calm - N/A   Overcast
3:53 AM 57.0 °F 48.9 °F 74% 30.12 in 10.0 mi Calm Calm - N/A   Overcast
4:00 AM 59.0 °F 48.2 °F 67% 30.13 in 10.0 mi SW 6.9 mph - N/A Thunderstorm Overcast
4:18 AM 57.2 °F 48.2 °F 72% 30.13 in 10.0 mi SW 4.6 mph - N/A   Overcast
4:53 AM 57.0 °F 48.9 °F 74% 30.11 in 10.0 mi Calm Calm - N/A   Overcast
5:53 AM 52.0 °F 48.0 °F 86% 30.11 in 10.0 mi Calm Calm - N/A   Mostly Cloudy
6:02 AM 51.8 °F 50.0 °F 94% 30.13 in 3.0 mi Calm Calm - 0.02 in Rain Light Rain
6:19 AM 53.6 °F 51.8 °F 94% 30.13 in 9.0 mi Calm Calm - 0.04 in Rain , Thunderstorm Light Rain
6:53 AM 57.0 °F 52.0 °F 83% 30.13 in 10.0 mi NNW 9.2 mph - 0.04 in Rain , Thunderstorm Light Rain
7:16 AM 53.6 °F 51.8 °F 94% 30.17 in 1.8 mi Variable 4.6 mph - 0.27 in Rain , Thunderstorm Heavy Thunderstorms and Rain
7:27 AM 51.8 °F 51.8 °F 100% 30.17 in 1.8 mi Calm Calm - 0.40 in Rain , Thunderstorm Thunderstorms and Rain
7:34 AM 51.8 °F 51.8 °F 100% 30.17 in 2.0 mi South 5.8 mph - 0.49 in Rain , Thunderstorm Heavy Thunderstorms and Rain
7:53 AM 51.1 °F 51.1 °F 100% 30.15 in 1.2 mi SSE 6.9 mph - 0.74 in Rain , Thunderstorm Heavy Thunderstorms and Rain
8:02 AM 51.8 °F 51.8 °F 100% 30.17 in 3.0 mi SSW 10.4 mph - 0.03 in Rain , Thunderstorm Light Thunderstorms and Rain
8:38 AM 51.8 °F 51.8 °F 100% 30.19 in 4.0 mi NNE 6.9 mph - 0.07 in Rain Rain
8:51 AM 51.8 °F 51.8 °F 100% 30.18 in 10.0 mi East 6.9 mph - 0.08 in   Overcast
8:53 AM 52.0 °F 52.0 °F 100% 30.18 in 10.0 mi ENE 4.6 mph - 0.08 in   Overcast
9:36 AM 53.6 °F 51.8 °F 94% 30.20 in 3.0 mi Calm Calm - 0.03 in Rain Light Rain
9:53 AM 53.1 °F 52.0 °F 96% 30.20 in 3.0 mi North 6.9 mph - 0.03 in   Overcast
10:03 AM 51.8 °F 51.8 °F 100% 30.22 in 2.5 mi NNE 5.8 mph - 0.01 in Rain Light Rain
10:06 AM 51.8 °F 51.8 °F 100% 30.21 in 3.0 mi Variable 3.5 mph - 0.01 in Rain Light Rain
10:53 AM 52.0 °F 51.1 °F 97% 30.20 in 7.0 mi ENE 5.8 mph - 0.02 in Rain Light Rain
11:53 AM 54.0 °F 51.1 °F 90% 30.19 in 10.0 mi East 8.1 mph - 0.00 in   Overcast
12:53 PM 57.9 °F 53.1 °F 84% 30.18 in 8.0 mi East 6.9 mph - N/A   Overcast
1:53 PM 62.1 °F 55.0 °F 78% 30.14 in 10.0 mi ENE 3.5 mph - N/A   Mostly Cloudy
2:53 PM 64.0 °F 55.9 °F 75% 30.12 in 10.0 mi South 10.4 mph - N/A   Overcast
3:53 PM 64.0 °F 55.0 °F 73% 30.11 in 10.0 mi South 5.8 mph - N/A   Overcast
4:53 PM 66.0 °F 55.0 °F 68% 30.10 in 10.0 mi WSW 4.6 mph - N/A   Overcast
5:53 PM 63.0 °F 55.0 °F 75% 30.11 in 10.0 mi South 9.2 mph - N/A   Mostly Cloudy
6:53 PM 61.0 °F 55.0 °F 81% 30.11 in 10.0 mi SSW 6.9 mph - N/A   Scattered Clouds
7:53 PM 57.9 °F 55.0 °F 90% 30.11 in 10.0 mi South 3.5 mph - N/A   Scattered Clouds
8:53 PM 59.0 °F 54.0 °F 83% 30.12 in 10.0 mi Calm Calm - N/A   Overcast
9:53 PM 57.0 °F 54.0 °F 89% 30.13 in 10.0 mi Calm Calm - N/A   Mostly Cloudy
10:03 PM 57.2 °F 53.6 °F 88% 30.13 in 10.0 mi Calm Calm - N/A   Mostly Cloudy
10:53 PM 57.0 °F 53.1 °F 87% 30.13 in 10.0 mi Calm Calm - N/A   Mostly Cloudy
11:53 PM 55.9 °F 53.1 °F 90% 30.12 in 10.0 mi South 5.8 mph - N/A   Clear